Tracking 19564 objects as of 20-Mar-2019
HD Live streaming from Space Station
objects crossing your sky now

FENGYUN 1C DEB

Track FENGYUN 1C DEB now!
10-day predictions


NORAD ID: 30484
Int'l Code: 1999-025AGW
Perigee: 612.0 km
Apogee: 699.7 km
Inclination: 99.0 °
Period: 97.7 minutes
Semi major axis: 7026 km
RCS: 0.019 m2 (small)
Launch date: May 10, 1999
Source: People's Republic of China (PRC)
Launch site: Taiyaun Space Center, China (TSC)

Note: This is SATELLITE DEBRIS
aabbcc
Your satellite tracking list
Your tracking list is empty




NASA's NSSDC Master Catalog

Two Line Element Set (TLE):
1 30484U 99025AGW 19077.48035457 +.00002367 +00000-0 +35983-3 0  9993
2 30484 099.0313 088.7083 0062417 310.0557 049.5183 14.73890119643243
Source of the keplerian elements: AFSPC